{"data":{"norad_id":53490,"intl_designator":"2022-099AB","name":"STARLINK-4387","alt_names":[],"object_type":"PAYLOAD","status":"ACTIVE","operator":null,"country":"US","launch_date":"2022-08-12","launch_site_code":"AFWTR","launch_vehicle":null,"mission":null,"orbit_class":"UNKNOWN","rcs_meters":null,"size_class":null,"mass_kg":null,"dimensions":null,"purposes":["comms"],"wikipedia_slug":null,"has_3d_model":false,"image_url":null,"decayed_at":null,"tle_current":{"epoch":"2026-09-20T22:00:03.000096Z","epoch_age_seconds":42551,"freshness":"FRESH","line1":"1 53490U 22099AB  26263.91670139  .00828675  30906-3  19775-2 0  9996","line2":"2 53490  97.6070  32.8234 0001628  69.7455 279.7186 15.96659070  5842","mean_motion":15.9665907,"eccentricity":0.0001628,"inclination_deg":97.607,"raan_deg":32.8234,"arg_perigee_deg":69.7455,"mean_anomaly_deg":279.7186,"bstar":0.0019775,"rev_number":584,"period_min":90.188320541091,"perigee_km":282.61101711198,"apogee_km":284.78010979464,"semimajor_km":6661.8325634533,"source":"CELESTRAK","updated_at":"2026-09-21T09:00:32.893175Z"}}}